[[{"header":{"parameterUnit":"m.s-1","parameterCategory":1,"la1":30.2991,"la2":30.254,"lo1":-89.0895,"lo2":-89.0444,"dy":0.0017,"dx":0.0017,"nx":28,"ny":28,"refTime":"2024-08-07T03:00:00:Z","depth":0,"parameterNumber":2,"parameterNumberName":"U-component_of_WINDS"},"data":[0,0,0,0,0,0,0,0,0,0,0,0,0,0,0,0,0,0,0,0,0,0,0,0,0,0,0,0,0,0,0,0,0,0,0,0,0,0,0,0,0,0,0,0,0,0,0,0,0,0,0,0,0,0,0,0,0,0,3.2735,3.2736,0,3.2823,3.2824,3.2825,3.2763,3.276,3.2757,3.2755,3.2846,3.2851,3.2856,0,0,0,0,0,0,0,0,0,0,0,0,0,3.2518,3.2522,3.2735,3.2736,3.2738,3.2823,3.2824,3.2825,3.2763,3.276,3.2756,3.2753,3.2845,3.2851,3.2857,0,0,0,0,0,0,0,0,0,0,0,0,0,3.2609,3.2523,3.2735,3.2717,3.2716,3.2823,3.2824,3.2826,3.2764,3.276,3.2756,3.2752,3.2843,3.285,3.2857,3.2988,0,0,3.2881,3.2884,0,0,0,0,0,0,0,0,3.2604,3.2618,3.2718,3.2718,3.2718,3.2778,3.2781,3.288,3.2765,3.2746,3.2754,3.275,3.2827,3.2836,3.2861,3.2992,3.2996,3.2881,3.2886,3.2889,3.2891,0,0,0,0,0,0,0,3.2598,3.2613,3.277,3.272,3.272,3.2705,3.2714,3.2799,3.2809,3.2747,3.2743,3.2754,3.2826,3.2854,3.2863,3.2997,3.2881,3.2888,3.2892,3.2895,3.3242,3.3247,0,0,0,0,0,0,3.2593,3.2609,3.2767,3.2773,3.2649,3.2713,3.2722,3.2763,3.2808,3.281,3.2757,3.2751,3.2843,3.2854,3.2866,3.3024,3.2889,3.2896,3.29,3.3237,3.3243,3.3248,0,0,0,0,0,0,3.2589,3.2608,3.2764,3.269,3.2708,3.2721,3.2767,3.2767,3.2795,3.2815,3.2817,3.2784,3.284,3.2855,3.2958,3.3026,3.2899,3.2906,3.3232,3.3239,3.3246,3.3338,0,0,0,0,0,0,3.2583,3.2606,3.2655,3.2691,3.2712,3.2854,3.2771,3.2771,3.2808,3.28,3.2841,3.2844,3.2838,3.2947,3.2966,3.3034,3.2912,3.3226,3.3235,3.3243,3.3329,3.3348,3.3363,0,0,0,0,0,3.2575,3.2678,3.2658,3.2677,3.2773,3.2858,3.287,3.2861,3.2813,3.2863,3.2877,3.2843,3.3015,3.2958,3.2979,3.305,3.3222,3.3233,3.3243,3.3322,3.3344,3.3363,0,0,0,0,0,0,3.2649,3.2682,3.266,3.2777,3.2816,3.2847,3.291,3.2885,3.2937,3.2928,3.2915,3.2925,3.3034,3.3052,3.2988,3.318,3.3111,3.3126,3.3164,3.3186,3.3202,3.3196,3.2918,0,0,0,0,0,3.2679,3.2744,3.2769,3.287,3.2891,3.2897,3.2933,3.2923,3.2962,3.2978,3.2999,3.3039,3.3103,3.3145,3.3204,3.3331,3.3341,3.3391,3.3408,3.3421,3.3435,3.3507,3.353,3.3283,3.3283,3.3283,0,0,3.2742,3.2768,3.281,3.2886,3.2914,3.2984,3.2911,3.2986,3.3038,3.299,3.3089,3.3106,3.315,3.3267,3.3319,3.3285,3.3506,3.3435,3.3446,3.3452,3.352,3.3544,3.3564,3.329,3.3289,3.3288,0,0,3.2892,3.2917,3.3005,3.3035,3.3079,3.3083,3.3104,3.3141,3.315,3.3249,3.3215,3.3277,3.3386,3.3419,3.3451,3.3616,3.3588,3.3635,3.3725,3.3795,3.3814,3.3832,3.3893,3.3915,3.3649,3.3649,3.3649,0,3.2965,3.3067,3.3054,3.3133,3.3169,3.3128,3.3218,3.3248,3.3309,3.3336,3.3297,3.3434,3.346,3.3586,3.3626,3.3652,3.3678,3.3631,3.3812,3.383,3.3846,3.3904,3.3927,3.3655,3.3654,3.3653,3.3653,0,3.3156,3.3227,3.3293,3.3354,3.3397,3.3481,3.3482,3.3527,3.3514,3.3523,3.3626,3.3656,3.3722,3.3751,3.3738,3.3875,3.3853,3.3814,3.3745,3.3875,3.393,3.3952,3.3663,3.3661,3.3659,3.3658,0,0,3.3355,3.3409,3.3433,3.3461,3.3507,3.3563,3.3646,3.3711,3.3751,3.3795,3.3866,3.396,3.3924,3.396,3.3951,3.4012,3.4145,3.3965,3.3966,3.4,3.4301,3.4333,3.4359,3.4125,3.4129,3.4133,3.4298,0,3.351,3.3655,3.3646,3.3783,3.385,3.3813,3.3886,3.3923,3.3934,3.3994,3.4005,3.4074,3.402,3.4042,3.41,3.4116,3.4205,3.4103,3.4194,3.4197,3.4186,3.4387,3.442,3.4575,3.432,3.4323,3.4326,0,3.371,3.3761,3.3905,3.3943,3.3971,3.4036,3.4096,3.4153,3.4195,3.4199,3.424,3.4221,3.4307,3.4235,3.4355,3.4286,3.4322,3.4336,3.4342,3.4352,3.4271,3.4405,3.4623,3.4648,3.4359,3.4356,3.4354,0,3.3844,3.3949,3.4049,3.4074,3.412,3.4168,3.419,3.4227,3.4267,3.432,3.4346,3.4408,3.4443,3.4492,3.4491,3.4438,3.4614,3.4541,3.4622,3.4622,3.4662,3.466,3.4892,3.4681,3.4681,3.4681,3.468,0,3.4019,3.4109,3.4111,3.4173,3.4273,3.4263,3.4363,3.438,3.4414,3.448,3.4451,3.4514,3.4508,3.4572,3.4572,3.4673,3.4688,3.4695,3.4695,3.4699,3.4699,3.4725,3.4715,3.4687,3.4685,3.4684,3.4683,0,3.4187,3.4191,3.4299,3.4334,3.4345,3.4418,3.4449,3.4509,3.4517,3.4601,3.462,3.4634,3.4708,3.4711,3.4796,3.4796,3.4921,3.4907,3.4907,3.4905,3.4987,3.498,3.5245,3.5281,3.5045,3.5047,3.5049,0,3.43,3.4368,3.4411,3.4453,3.4478,3.4545,3.4586,3.458,3.4624,3.4678,3.4732,3.4803,3.486,3.498,3.4998,3.5064,3.5053,3.5141,3.5063,3.5066,3.5058,3.5055,3.5063,3.5158,3.516,3.5162,3.5164,0,3.45,3.4499,3.4559,3.4621,3.467,3.4718,3.4763,3.4799,3.4798,3.485,3.4925,3.4969,3.5056,3.5128,3.5192,3.5216,3.5192,3.5188,3.5211,3.5218,3.5216,3.5221,3.4951,3.5183,3.5181,3.518,3.5179,3.5178,3.4645,3.4706,3.4746,3.4814,3.4847,3.489,3.4949,3.4965,3.5027,3.5098,3.509,3.5174,3.5217,3.5301,3.533,3.5397,3.5367,3.5399,3.5407,3.5416,3.5426,3.5204,3.5408,3.5407,3.5407,3.5406,3.5406,0,3.4846,3.4871,3.4934,3.4998,3.5052,3.5023,3.5071,3.5119,3.5194,3.5235,3.5292,3.538,3.545,3.5474,3.5543,3.5592,3.5583,3.561,3.5608,3.5615,3.5448,3.5422,3.5617,3.5617,3.5617,3.5617,3.5617,3.5617,3.4958,3.5059,3.5063,3.5181,3.5205,3.5287,3.5318,3.5358,3.5392,3.5491,3.5549,3.5564,3.56,3.5671,3.5735,3.574,3.5768,3.5802,3.5803,3.5647,3.5626,3.5606,3.5582,3.5807,3.5807,3.5965,3.5966,3.5967]},{"header":{"parameterUnit":"m.s-1","parameterCategory":1,"la1":30.2991,"la2":30.254,"lo1":-89.0895,"lo2":-89.0444,"dy":0.0017,"dx":0.0017,"nx":28,"ny":28,"refTime":"2024-08-07T03:00:00:Z","depth":0,"parameterNumber":3,"parameterNumberName":"V-component_of_WINDS"},"data":[0,0,0,0,0,0,0,0,0,0,0,0,0,0,0,0,0,0,0,0,0,0,0,0,0,0,0,0,0,0,0,0,0,0,0,0,0,0,0,0,0,0,0,0,0,0,0,0,0,0,0,0,0,0,0,0,0,0,0.1084,0.1084,0,0.1081,0.1081,0.1081,0.1058,0.1058,0.1057,0.1057,0.1056,0.1057,0.1058,0,0,0,0,0,0,0,0,0,0,0,0,0,0.1071,0.1071,0.1084,0.1084,0.1084,0.1081,0.1081,0.1081,0.1059,0.1058,0.1057,0.1057,0.1056,0.1057,0.1058,0,0,0,0,0,0,0,0,0,0,0,0,0,0.1073,0.1071,0.1084,0.1072,0.1071,0.1081,0.1081,0.1081,0.1059,0.1058,0.1057,0.1056,0.1056,0.1057,0.1058,0.108,0,0,0.106,0.106,0,0,0,0,0,0,0,0,0.1073,0.1074,0.1074,0.1073,0.1072,0.1069,0.1077,0.1081,0.1059,0.1064,0.1057,0.1056,0.1062,0.1062,0.1063,0.108,0.108,0.106,0.1061,0.1061,0.1061,0,0,0,0,0,0,0,0.1073,0.1074,0.1083,0.1074,0.1073,0.1068,0.1067,0.1077,0.1068,0.1063,0.1061,0.1061,0.1061,0.1063,0.1063,0.108,0.106,0.1061,0.1061,0.1062,0.1114,0.1115,0,0,0,0,0,0,0.1074,0.1074,0.1083,0.1083,0.107,0.1069,0.1068,0.1071,0.1067,0.1066,0.1062,0.106,0.1062,0.1062,0.1063,0.1089,0.1061,0.1062,0.1062,0.1113,0.1114,0.1115,0,0,0,0,0,0,0.1074,0.1075,0.1083,0.1078,0.1079,0.107,0.1074,0.1072,0.1073,0.1066,0.1065,0.1066,0.1061,0.1062,0.1076,0.1089,0.1062,0.1063,0.1112,0.1113,0.1115,0.1141,0,0,0,0,0,0,0.1074,0.1076,0.1084,0.1078,0.1079,0.1096,0.1074,0.1072,0.1074,0.1072,0.1069,0.1068,0.106,0.1075,0.1076,0.1089,0.1063,0.1111,0.1113,0.1114,0.1139,0.1143,0.1146,0,0,0,0,0,0.1074,0.1092,0.1084,0.1085,0.1089,0.1096,0.1097,0.1087,0.1076,0.1084,0.1079,0.1068,0.1087,0.1076,0.1078,0.1091,0.111,0.1112,0.1114,0.1137,0.1142,0.1146,0,0,0,0,0,0,0.11,0.1091,0.1082,0.1099,0.1098,0.1092,0.1103,0.1093,0.1096,0.1094,0.1082,0.1081,0.1097,0.1095,0.1084,0.1112,0.1096,0.1099,0.1113,0.1118,0.1121,0.1122,0.1064,0,0,0,0,0,0.1107,0.1113,0.1105,0.1121,0.1121,0.1112,0.1115,0.1107,0.1106,0.1106,0.1103,0.1103,0.1109,0.1113,0.1118,0.1138,0.1137,0.1148,0.1152,0.1155,0.1157,0.1168,0.1173,0.1122,0.1122,0.1122,0,0,0.1123,0.1119,0.1124,0.1126,0.1125,0.1132,0.1112,0.1121,0.1126,0.1108,0.112,0.1118,0.1117,0.1134,0.1141,0.1133,0.1171,0.1157,0.116,0.1161,0.117,0.1175,0.118,0.1123,0.1123,0.1123,0,0,0.1156,0.1153,0.1166,0.1165,0.1162,0.1156,0.1159,0.1154,0.1151,0.1163,0.115,0.1156,0.1167,0.1167,0.1168,0.12,0.119,0.1202,0.1222,0.1233,0.1237,0.124,0.1252,0.1256,0.1204,0.1204,0.1204,0,0.1177,0.1186,0.1174,0.1183,0.1185,0.1167,0.118,0.118,0.118,0.1181,0.1172,0.1184,0.1182,0.1199,0.1206,0.1208,0.1212,0.1203,0.1237,0.124,0.1243,0.1254,0.1259,0.1206,0.1206,0.1206,0.1205,0,0.1212,0.1219,0.1229,0.1229,0.1231,0.1242,0.1232,0.1236,0.1228,0.1222,0.1235,0.1232,0.1236,0.1239,0.1232,0.1255,0.125,0.1239,0.1223,0.125,0.126,0.1264,0.1208,0.1207,0.1207,0.1207,0,0,0.1263,0.1254,0.1258,0.1257,0.1253,0.1258,0.1269,0.1271,0.1275,0.1276,0.1284,0.1293,0.1282,0.1284,0.1276,0.1285,0.131,0.1273,0.1272,0.128,0.1336,0.1345,0.135,0.1303,0.1304,0.1304,0.1336,0,0.1295,0.1311,0.13,0.1318,0.1325,0.1308,0.1316,0.1315,0.131,0.1315,0.131,0.1316,0.1302,0.1302,0.131,0.1306,0.1322,0.1303,0.1312,0.1312,0.1313,0.1355,0.1365,0.1395,0.134,0.1341,0.1341,0,0.1334,0.1335,0.1354,0.1348,0.135,0.1359,0.136,0.1365,0.1363,0.1359,0.136,0.135,0.136,0.1343,0.1357,0.1344,0.1347,0.1345,0.1346,0.1347,0.1329,0.1358,0.1404,0.1409,0.1347,0.1347,0.1346,0,0.137,0.1376,0.1388,0.1388,0.1381,0.1387,0.1385,0.1382,0.1384,0.1385,0.1387,0.139,0.1392,0.1394,0.1385,0.1374,0.14,0.1383,0.1398,0.1398,0.1405,0.1405,0.1453,0.1405,0.1405,0.1405,0.1405,0,0.1407,0.142,0.1404,0.1411,0.1425,0.1412,0.1425,0.1421,0.1419,0.1425,0.1411,0.1418,0.1404,0.141,0.1403,0.1416,0.1416,0.1414,0.1412,0.1416,0.1416,0.1418,0.1416,0.1406,0.1406,0.1406,0.1406,0,0.145,0.144,0.1452,0.1444,0.1442,0.1452,0.1446,0.1453,0.1446,0.1455,0.1456,0.1446,0.1452,0.1443,0.1447,0.1443,0.146,0.1455,0.1461,0.146,0.1475,0.1474,0.1527,0.1533,0.1481,0.1482,0.1482,0,0.1475,0.1484,0.1477,0.148,0.1478,0.1483,0.1485,0.1472,0.1475,0.1473,0.148,0.1484,0.1487,0.1497,0.1491,0.1494,0.1489,0.1507,0.149,0.1493,0.149,0.149,0.1491,0.1511,0.1512,0.1512,0.1513,0,0.1521,0.1515,0.1518,0.1519,0.1521,0.1522,0.1521,0.1525,0.1511,0.1515,0.152,0.1522,0.1526,0.1531,0.1533,0.1531,0.152,0.1518,0.1522,0.1526,0.153,0.1528,0.1472,0.1517,0.1517,0.1516,0.1516,0.1516,0.1556,0.1563,0.1559,0.1562,0.156,0.156,0.1566,0.1559,0.1563,0.1565,0.1557,0.1564,0.1562,0.1563,0.1562,0.1567,0.156,0.1565,0.1566,0.1568,0.1571,0.1528,0.1568,0.1568,0.1567,0.1567,0.1567,0,0.1601,0.1597,0.1601,0.16,0.1603,0.1591,0.1589,0.1593,0.1599,0.1597,0.1599,0.1605,0.1609,0.1603,0.1606,0.1612,0.1607,0.1613,0.1613,0.1613,0.1578,0.1574,0.1617,0.1617,0.1617,0.1617,0.1617,0.1617,0.1625,0.1637,0.163,0.164,0.1636,0.1642,0.1643,0.1642,0.1641,0.1648,0.1651,0.1646,0.1642,0.1645,0.1648,0.1646,0.1648,0.1656,0.1653,0.162,0.1615,0.1611,0.1608,0.1657,0.1657,0.1688,0.1688,0.1688]}]]